This demonstration page uses our WeatherBlox Daily Observations layout. Learn more.

Left ArrowRight Arrow

Hourly Observations for April 8, 2019

Temp ( °F °C ) Dew Point ( °F °C ) Humidity (%) Winds ( mph kmh ) Pressure ( in mb ) Visibility ( mi km ) Precip ( " mm )
12:52 am 00:52 Clear 53 11.7 45 7.2 74 74 SE 7 11 29.96 1015 10 16 0.00 0.00
1:52 am 01:52 Clear 51 10.6 44 6.7 77 77 SSE 7 11 29.96 1015 10 16 0.00 0.00
2:52 am 02:52 Clear 50 10 43 6.1 77 77 SSE 9 15 29.94 1014 10 16 0.00 0.00
3:52 am 03:52 Clear 50 10 44 6.7 80 80 SSE 7 11 29.93 1014 10 16 0.00 0.00
4:52 am 04:52 Clear 50 10 44 6.7 80 80 SE 8 13 29.92 1013 10 16 0.00 0.00
5:52 am 05:52 Clear 48 8.9 43 6.1 83 83 SSE 9 15 29.91 1013 10 16 0.00 0.00
6:52 am 06:52 Mostly Cloudy 48 8.9 43 6.1 83 83 SE 7 11 29.91 1013 10 16 0.00 0.00
7:52 am 07:52 Mostly Cloudy 51 10.6 46 7.8 83 83 SE 8 13 29.93 1014 10 16 0.00 0.00
8:52 am 08:52 Mostly Cloudy 58 14.4 47 8.3 67 67 S 12 19 29.92 1013 10 16 0.00 0.00
9:52 am 09:52 Partly Cloudy 66 18.9 46 7.8 49 49 S 10 17 29.89 1012 10 16 0.00 0.00
10:52 am 10:52 Mostly Sunny 70 21.1 44 6.7 39 39 SSW 14 22 29.87 1012 10 16 0.00 0.00
11:52 am 11:52 Partly Cloudy 75 23.9 41 5 29 29 WSW 16 26 29.85 1011 10 16 0.00 0.00
12:52 pm 12:52 Mostly Sunny 77 25 40 4.4 26 26 SW 12 19 29.85 1011 10 16 0.00 0.00
1:52 pm 13:52 Mostly Sunny 79 26.1 39 3.9 24 24 WSW 10 17 29.85 1011 10 16 0.00 0.00
2:52 pm 14:52 Mostly Sunny 80 26.7 42 5.6 26 26 N 16 26 29.84 1011 10 16 0.00 0.00
3:52 pm 15:52 Mostly Sunny 80 26.7 41 5 25 25 N 13 20 29.84 1011 10 16 0.00 0.00
4:52 pm 16:52 Mostly Sunny 79 26.1 42 5.6 27 27 N 14 22 29.83 1010 10 16 0.00 0.00
5:52 pm 17:52 Partly Cloudy 78 25.6 43 6.1 29 29 N 16 26 29.84 1011 10 16 0.00 0.00
6:52 pm 18:52 Partly Cloudy 75 23.9 45 7.2 34 34 NNW 8 13 29.87 1011 10 16 0.00 0.00
7:52 pm 19:52 Mostly Cloudy 66 18.9 46 7.8 49 49 NNW 9 15 29.90 1012 10 16 0.00 0.00
8:52 pm 20:52 Mostly Cloudy 66 18.9 47 8.3 50 50 N 9 15 29.93 1014 10 16 0.00 0.00
9:52 pm 21:52 Cloudy 62 16.7 48 8.9 60 60 N 8 13 29.94 1014 10 16 0.00 0.00
10:52 pm 22:52 Mostly Cloudy 60 15.6 47 8.3 62 62 NNE 6 9 29.95 1014 10 16 0.00 0.00
11:52 pm 23:52 Partly Cloudy 56 13.3 47 8.3 72 72 N 6 9 29.94 1014 10 16 0.00 0.00

Powered by AerisWeather